sat.trackr.live / text

‹ back to catalog

STARLINK-31201

NORAD 58870 · 2024-019T

PAYLOAD ACTIVE UNKNOWN

§ Identity

Operator
Country
US
Launch date
2024-01-29
Launch site
AFETR
Launch vehicle
Mass (kg)
RCS (m²)

Purposes: comms

External: N2YO · Heavens-Above · Gunter

§ Orbital elements

Epoch: 2026-05-24T09:13:37.812288Z

Period
94.27 min
Inclination
43.0008°
Eccentricity
0.0001148
Mean motion
15.27578500 rev/d
Perigee alt
482.3 km
Apogee alt
483.8 km
Semi-major
6,861.2 km
B*
1.0692e-5
RAAN
181.0351°
Arg perigee
267.5864°
Mean anomaly
92.4857°
Rev number
13,064

§ Raw data

STARLINK-312011 58870U 24019T   26144.38446542  .00000032  00000+0  10692-4 0  99932 58870  43.0008 181.0351 0001148 267.5864  92.4857 15.27578500130645

JSON: /api/v1/satellites/58870 · /tle

For live sub-satellite position, see the globe view (requires WebGL).

§ Visibility from observer

Set your observer location to see the next 7 days of passes ≥ 10°. The values pass through the URL so the page stays shareable.

No JS? Fill the form by hand. The geolocation button needs JavaScript.